Location: Unspecified
(0.0000°N, 0.0000°E)
Time: 22:00:44
(UTC+00:00)

STARLINK-34055 - Visible Passes

Search period start: 20 June 2025 00:00
Search period end: 30 June 2025 00:00
Orbit: 482 x 484 km, 43.0° (Epoch: 20 June)

Date Brightness Start Highest point End Pass type
(mag) Time Alt. Az. Time Alt. Az. Time Alt. Az.
21 Jun 3.4 19:24:19 10° SSW 19:27:40 54° SSE 19:27:40 54° SSE visible
22 Jun 3.4 18:56:35 10° SSW 19:00:16 54° SE 19:03:57 10° ENE visible
23 Jun 3.5 18:28:49 10° SSW 18:32:29 51° SE 18:36:09 10° ENE visible
24 Jun 6.9 19:42:55 10° NW 19:43:31 10° NW 19:44:08 10° NW visible
25 Jun 6.8 19:14:43 10° WNW 19:15:42 11° NW 19:16:41 10° NNW visible
26 Jun 4.6 05:19:20 10° NNW 05:22:56 44° NE 05:26:33 10° ESE visible
26 Jun 6.8 18:46:37 10° WNW 18:47:52 11° NW 18:49:07 10° NNW visible
27 Jun 4.6 04:51:31 10° NNW 04:55:06 42° NE 04:58:41 10° ESE visible
28 Jun 4.6 04:24:06 13° NNW 04:27:14 40° NE 04:30:47 10° ESE visible
29 Jun 5.3 04:00:47 27° E 04:00:47 27° E 04:02:52 10° ESE visible
29 Jun 5.3 05:36:22 10° WSW 05:38:09 13° SW 05:39:56 10° SSW visible
